Time,TemperatureF,DewpointF,PressureIn,WindDirection,WindDirectionDegrees,WindSpeedMPH,WindSpeedGustMPH,Humidity,HourlyPrecipIn,Conditions,Clouds,dailyrainin,SoftwareType,DateUTC
2013-07-12 00:00:00,82.8,70.7,29.90,South,177,5.0,5.0,67,0.00,,,0.00,Wunderground v.1.15,2013-07-12 05:00:00,
2013-07-12 00:05:00,82.8,70.7,29.91,SE,146,4.0,5.0,67,0.00,,,0.00,Wunderground v.1.15,2013-07-12 05:05:00,
2013-07-12 00:10:00,82.7,70.6,29.91,SE,145,3.0,3.0,67,0.00,,,0.00,Wunderground v.1.15,2013-07-12 05:10:00,
2013-07-12 00:20:00,82.7,71.1,29.91,SE,145,1.0,1.0,68,0.00,,,0.00,Wunderground v.1.15,2013-07-12 05:20:00,
2013-07-12 00:25:00,82.6,71.0,29.91,SE,144,2.0,2.0,68,0.00,,,0.00,Wunderground v.1.15,2013-07-12 05:25:00,
2013-07-12 00:30:00,82.4,70.8,29.90,SE,145,2.0,2.0,68,0.00,,,0.00,Wunderground v.1.15,2013-07-12 05:30:00,
2013-07-12 00:35:00,82.4,70.8,29.90,SSE,153,2.0,2.0,68,0.00,,,0.00,Wunderground v.1.15,2013-07-12 05:35:00,
2013-07-12 00:45:00,82.3,70.7,29.90,SSE,161,3.0,3.0,68,0.00,,,0.00,Wunderground v.1.15,2013-07-12 05:45:00,
2013-07-12 00:50:00,82.3,70.7,29.90,SSE,161,2.0,2.0,68,0.00,,,0.00,Wunderground v.1.15,2013-07-12 05:50:00,
2013-07-12 00:55:00,82.3,70.7,29.90,SSE,162,2.0,4.0,68,0.00,,,0.00,Wunderground v.1.15,2013-07-12 05:55:00,
2013-07-12 01:00:00,82.2,70.6,29.89,South,177,2.0,2.0,68,0.00,,,0.00,Wunderground v.1.15,2013-07-12 06:00:00,
2013-07-12 01:05:00,82.2,70.6,29.90,SSE,160,2.0,2.0,68,0.00,,,0.00,Wunderground v.1.15,2013-07-12 06:05:00,
2013-07-12 01:15:00,81.9,70.3,29.89,South,174,2.0,4.0,68,0.00,,,0.00,Wunderground v.1.15,2013-07-12 06:15:00,
2013-07-12 01:25:00,81.6,70.4,29.88,SE,146,2.0,3.0,69,0.00,,,0.00,Wunderground v.1.15,2013-07-12 06:25:00,
2013-07-12 01:30:00,81.5,70.8,29.88,SE,146,2.0,2.0,70,0.00,,,0.00,Wunderground v.1.15,2013-07-12 06:30:00,
2013-07-12 01:35:00,81.3,70.6,29.89,SE,146,2.0,2.0,70,0.00,,,0.00,Wunderground v.1.15,2013-07-12 06:35:00,
2013-07-12 01:40:00,81.1,70.8,29.89,East,92,2.0,3.0,71,0.00,,,0.00,Wunderground v.1.15,2013-07-12 06:40:00,
2013-07-12 01:50:00,80.8,70.9,29.88,East,92,1.0,2.0,72,0.00,,,0.00,Wunderground v.1.15,2013-07-12 06:50:00,
2013-07-12 01:55:00,80.7,70.8,29.88,East,93,1.0,2.0,72,0.00,,,0.00,Wunderground v.1.15,2013-07-12 06:55:00,
2013-07-12 02:00:00,80.5,70.6,29.88,East,99,2.0,3.0,72,0.00,,,0.00,Wunderground v.1.15,2013-07-12 07:00:00,
2013-07-12 02:10:00,80.2,70.8,29.88,SSE,165,2.0,2.0,73,0.00,,,0.00,Wunderground v.1.15,2013-07-12 07:10:00,
2013-07-12 02:15:00,80.2,70.8,29.88,SE,138,2.0,3.0,73,0.00,,,0.00,Wunderground v.1.15,2013-07-12 07:15:00,
2013-07-12 02:20:00,80.1,70.7,29.89,SE,138,2.0,2.0,73,0.00,,,0.00,Wunderground v.1.15,2013-07-12 07:20:00,
2013-07-12 02:30:00,79.7,70.7,29.89,ESE,118,2.0,2.0,74,0.00,,,0.00,Wunderground v.1.15,2013-07-12 07:30:00,
2013-07-12 02:35:00,79.6,71.0,29.89,East,86,2.0,3.0,75,0.00,,,0.00,Wunderground v.1.15,2013-07-12 07:35:00,
2013-07-12 02:40:00,79.3,70.7,29.89,East,94,3.0,3.0,75,0.00,,,0.00,Wunderground v.1.15,2013-07-12 07:40:00,
2013-07-12 02:45:00,79.1,70.9,29.89,East,94,3.0,3.0,76,0.00,,,0.00,Wunderground v.1.15,2013-07-12 07:45:00,
2013-07-12 02:50:00,79.0,70.8,29.89,East,88,2.0,2.0,76,0.00,,,0.00,Wunderground v.1.15,2013-07-12 07:50:00,
2013-07-12 03:00:00,78.8,70.6,29.89,East,87,3.0,3.0,76,0.00,,,0.00,Wunderground v.1.15,2013-07-12 08:00:00,
2013-07-12 03:05:00,78.7,70.9,29.89,East,87,3.0,3.0,77,0.00,,,0.00,Wunderground v.1.15,2013-07-12 08:05:00,
2013-07-12 03:15:00,78.5,70.7,29.89,ESE,118,2.0,5.0,77,0.00,,,0.00,Wunderground v.1.15,2013-07-12 08:15:00,
2013-07-12 03:20:00,78.4,71.0,29.89,ESE,123,3.0,3.0,78,0.00,,,0.00,Wunderground v.1.15,2013-07-12 08:20:00,
2013-07-12 03:30:00,77.9,70.5,29.89,ESE,109,2.0,2.0,78,0.00,,,0.00,Wunderground v.1.15,2013-07-12 08:30:00,
2013-07-12 03:35:00,77.8,70.8,29.90,ESE,109,2.0,2.0,79,0.00,,,0.00,Wunderground v.1.15,2013-07-12 08:35:00,
2013-07-12 03:40:00,77.7,70.7,29.90,ESE,113,1.0,1.0,79,0.00,,,0.00,Wunderground v.1.15,2013-07-12 08:40:00,
2013-07-12 03:45:00,77.6,70.6,29.90,SE,138,2.0,5.0,79,0.00,,,0.00,Wunderground v.1.15,2013-07-12 08:45:00,
2013-07-12 03:55:00,77.4,70.7,29.89,SE,124,4.0,5.0,80,0.00,,,0.00,Wunderground v.1.15,2013-07-12 08:55:00,
2013-07-12 04:05:00,77.4,70.7,29.90,SE,134,3.0,3.0,80,0.00,,,0.00,Wunderground v.1.15,2013-07-12 09:05:00,
2013-07-12 04:10:00,77.5,70.8,29.90,SE,134,1.0,2.0,80,0.00,,,0.00,Wunderground v.1.15,2013-07-12 09:10:00,
2013-07-12 04:15:00,77.5,70.8,29.90,SE,134,1.0,2.0,80,0.00,,,0.00,Wunderground v.1.15,2013-07-12 09:15:00,
2013-07-12 04:20:00,77.4,70.7,29.90,SE,134,1.0,1.0,80,0.00,,,0.00,Wunderground v.1.15,2013-07-12 09:20:00,
2013-07-12 04:25:00,77.2,70.5,29.90,SE,134,1.0,3.0,80,0.00,,,0.00,Wunderground v.1.15,2013-07-12 09:25:00,
2013-07-12 04:35:00,76.9,70.6,29.90,SE,134,2.0,3.0,81,0.00,,,0.00,Wunderground v.1.15,2013-07-12 09:35:00,
2013-07-12 04:40:00,76.8,70.9,29.90,SE,134,3.0,3.0,82,0.00,,,0.00,Wunderground v.1.15,2013-07-12 09:40:00,
2013-07-12 04:45:00,76.6,70.7,29.90,SE,134,2.0,3.0,82,0.00,,,0.00,Wunderground v.1.15,2013-07-12 09:45:00,
2013-07-12 04:55:00,76.7,71.1,29.90,SE,134,1.0,2.0,83,0.00,,,0.00,Wunderground v.1.15,2013-07-12 09:55:00,
2013-07-12 05:00:00,76.9,71.3,29.90,SE,134,0.0,1.0,83,0.00,,,0.00,Wunderground v.1.15,2013-07-12 10:00:00,
2013-07-12 05:05:00,77.1,71.2,29.90,SE,134,1.0,2.0,82,0.00,,,0.00,Wunderground v.1.15,2013-07-12 10:05:00,
2013-07-12 05:10:00,76.9,70.6,29.90,East,88,3.0,3.0,81,0.00,,,0.00,Wunderground v.1.15,2013-07-12 10:10:00,
2013-07-12 05:15:00,76.3,70.8,29.90,East,93,4.0,4.0,83,0.00,,,0.00,Wunderground v.1.15,2013-07-12 10:15:00,
2013-07-12 05:20:00,76.0,70.5,29.91,East,99,3.0,3.0,83,0.00,,,0.00,Wunderground v.1.15,2013-07-12 10:20:00,
2013-07-12 05:25:00,75.8,70.6,29.90,ESE,108,2.0,3.0,84,0.00,,,0.00,Wunderground v.1.15,2013-07-12 10:25:00,
2013-07-12 05:30:00,75.7,70.5,29.90,ESE,107,2.0,3.0,84,0.00,,,0.00,Wunderground v.1.15,2013-07-12 10:30:00,
2013-07-12 05:35:00,75.6,70.8,29.91,ESE,117,2.0,3.0,85,0.00,,,0.00,Wunderground v.1.15,2013-07-12 10:35:00,
2013-07-12 05:45:00,75.2,70.4,29.91,East,98,2.0,2.0,85,0.00,,,0.00,Wunderground v.1.15,2013-07-12 10:45:00,
2013-07-12 05:55:00,75.1,70.3,29.91,ESE,117,3.0,3.0,85,0.00,,,0.00,Wunderground v.1.15,2013-07-12 10:55:00,
2013-07-12 06:00:00,75.0,70.5,29.91,ESE,105,2.0,2.0,86,0.00,,,0.00,Wunderground v.1.15,2013-07-12 11:00:00,
2013-07-12 06:10:00,75.1,70.6,29.91,ESE,102,2.0,2.0,86,0.00,,,0.00,Wunderground v.1.15,2013-07-12 11:10:00,
2013-07-12 06:15:00,75.2,70.7,29.91,ESE,102,1.0,2.0,86,0.00,,,0.00,Wunderground v.1.15,2013-07-12 11:15:00,
2013-07-12 06:20:00,75.3,70.5,29.91,ESE,106,2.0,2.0,85,0.00,,,0.00,Wunderground v.1.15,2013-07-12 11:20:00,
2013-07-12 06:30:00,75.3,70.8,29.91,ESE,107,1.0,2.0,86,0.00,,,0.00,Wunderground v.1.15,2013-07-12 11:30:00,
2013-07-12 06:35:00,75.3,70.8,29.91,ESE,107,1.0,2.0,86,0.00,,,0.00,Wunderground v.1.15,2013-07-12 11:35:00,
2013-07-12 06:40:00,75.2,70.7,29.91,ESE,106,2.0,2.0,86,0.00,,,0.00,Wunderground v.1.15,2013-07-12 11:40:00,
2013-07-12 06:45:00,75.3,70.8,29.91,ESE,107,2.0,2.0,86,0.00,,,0.00,Wunderground v.1.15,2013-07-12 11:45:00,
2013-07-12 06:55:00,75.0,70.5,29.92,East,96,3.0,3.0,86,0.00,,,0.00,Wunderground v.1.15,2013-07-12 11:55:00,
2013-07-12 07:00:00,74.9,70.8,29.92,ENE,69,3.0,3.0,87,0.00,,,0.00,Wunderground v.1.15,2013-07-12 12:00:00,
2013-07-12 07:10:00,75.2,70.7,29.92,East,94,3.0,3.0,86,0.00,,,0.00,Wunderground v.1.15,2013-07-12 12:10:00,
2013-07-12 07:15:00,75.1,70.6,29.92,East,93,3.0,5.0,86,0.00,,,0.00,Wunderground v.1.15,2013-07-12 12:15:00,
2013-07-12 07:20:00,75.1,71.0,29.92,East,98,3.0,6.0,87,0.00,,,0.00,Wunderground v.1.15,2013-07-12 12:20:00,
2013-07-12 07:25:00,75.1,71.0,29.92,ESE,113,3.0,6.0,87,0.00,,,0.00,Wunderground v.1.15,2013-07-12 12:25:00,
2013-07-12 07:35:00,75.5,71.4,29.93,ESE,116,3.0,3.0,87,0.00,,,0.00,Wunderground v.1.15,2013-07-12 12:35:00,
2013-07-12 07:45:00,75.8,71.3,29.93,ESE,107,3.0,4.0,86,0.00,,,0.00,Wunderground v.1.15,2013-07-12 12:45:00,
2013-07-12 07:55:00,76.2,71.7,29.93,ESE,117,5.0,7.0,86,0.00,,,0.00,Wunderground v.1.15,2013-07-12 12:55:00,
2013-07-12 08:00:00,76.6,71.7,29.93,East,98,4.0,4.0,85,0.00,,,0.00,Wunderground v.1.15,2013-07-12 13:00:00,
2013-07-12 08:05:00,77.0,72.1,29.93,East,87,3.0,4.0,85,0.00,,,0.00,Wunderground v.1.15,2013-07-12 13:05:00,
2013-07-12 08:10:00,77.5,72.3,29.93,ENE,74,3.0,5.0,84,0.00,,,0.00,Wunderground v.1.15,2013-07-12 13:10:00,
2013-07-12 08:20:00,77.7,72.1,29.94,ESE,111,5.0,5.0,83,0.00,,,0.00,Wunderground v.1.15,2013-07-12 13:20:00,
2013-07-12 08:30:00,78.4,72.4,29.94,SE,142,4.0,5.0,82,0.00,,,0.00,Wunderground v.1.15,2013-07-12 13:30:00,
2013-07-12 08:35:00,78.7,72.7,29.94,SE,136,4.0,7.0,82,0.00,,,0.00,Wunderground v.1.15,2013-07-12 13:35:00,
2013-07-12 08:40:00,78.9,72.2,29.95,SE,124,5.0,5.0,80,0.00,,,0.00,Wunderground v.1.15,2013-07-12 13:40:00,
2013-07-12 08:50:00,79.2,72.1,29.94,SE,136,5.0,7.0,79,0.00,,,0.00,Wunderground v.1.15,2013-07-12 13:50:00,
2013-07-12 08:55:00,79.4,71.9,29.94,SE,139,6.0,7.0,78,0.00,,,0.00,Wunderground v.1.15,2013-07-12 13:55:00,
2013-07-12 09:00:00,79.7,72.2,29.94,ESE,107,7.0,7.0,78,0.00,,,0.00,Wunderground v.1.15,2013-07-12 14:00:00,
2013-07-12 09:05:00,80.4,72.5,29.94,East,94,5.0,7.0,77,0.00,,,0.00,Wunderground v.1.15,2013-07-12 14:05:00,
2013-07-12 09:10:00,80.7,72.0,29.94,East,86,4.0,8.0,75,0.00,,,0.00,Wunderground v.1.15,2013-07-12 14:10:00,
2013-07-12 09:20:00,81.3,72.2,29.95,SSE,147,6.0,7.0,74,0.00,,,0.00,Wunderground v.1.15,2013-07-12 14:20:00,
2013-07-12 09:25:00,81.5,72.4,29.95,East,101,5.0,7.0,74,0.00,,,0.00,Wunderground v.1.15,2013-07-12 14:25:00,
2013-07-12 09:30:00,81.8,72.3,29.95,SE,126,5.0,9.0,73,0.00,,,0.00,Wunderground v.1.15,2013-07-12 14:30:00,
2013-07-12 09:35:00,81.8,72.3,29.95,SE,146,7.0,9.0,73,0.00,,,0.00,Wunderground v.1.15,2013-07-12 14:35:00,
2013-07-12 09:40:00,81.9,72.0,29.95,ESE,120,7.0,10.0,72,0.00,,,0.00,Wunderground v.1.15,2013-07-12 14:40:00,
2013-07-12 09:50:00,82.0,72.1,29.95,SE,134,7.0,10.0,72,0.00,,,0.00,Wunderground v.1.15,2013-07-12 14:50:00,
2013-07-12 09:55:00,82.1,72.2,29.95,ENE,62,7.0,10.0,72,0.00,,,0.00,Wunderground v.1.15,2013-07-12 14:55:00,
2013-07-12 10:05:00,83.6,71.5,29.95,SSE,159,5.0,8.0,67,0.00,,,0.00,Wunderground v.1.15,2013-07-12 15:05:00,
2013-07-12 10:10:00,83.5,71.8,29.95,SE,136,6.0,7.0,68,0.00,,,0.00,Wunderground v.1.15,2013-07-12 15:10:00,
2013-07-12 10:15:00,83.6,71.5,29.95,South,181,7.0,7.0,67,0.00,,,0.00,Wunderground v.1.15,2013-07-12 15:15:00,
2013-07-12 10:20:00,83.6,71.5,29.94,SE,145,7.0,7.0,67,0.00,,,0.00,Wunderground v.1.15,2013-07-12 15:20:00,
2013-07-12 10:30:00,84.0,71.0,29.95,SE,136,7.0,9.0,65,0.00,,,0.00,Wunderground v.1.15,2013-07-12 15:30:00,
2013-07-12 10:40:00,84.6,71.1,29.94,SSW,192,7.0,7.0,64,0.00,,,0.00,Wunderground v.1.15,2013-07-12 15:40:00,
2013-07-12 10:50:00,85.4,70.9,29.94,SSE,157,7.0,7.0,62,0.00,,,0.00,Wunderground v.1.15,2013-07-12 15:50:00,
2013-07-12 10:55:00,85.3,70.8,29.94,ENE,72,7.0,7.0,62,0.00,,,0.00,Wunderground v.1.15,2013-07-12 15:55:00,
2013-07-12 11:00:00,85.6,71.1,29.95,East,96,7.0,11.0,62,0.00,,,0.00,Wunderground v.1.15,2013-07-12 16:00:00,
2013-07-12 11:05:00,85.6,71.1,29.94,ESE,118,7.0,11.0,62,0.00,,,0.00,Wunderground v.1.15,2013-07-12 16:05:00,
2013-07-12 11:15:00,86.4,70.9,29.94,SSE,154,8.0,10.0,60,0.00,,,0.00,Wunderground v.1.15,2013-07-12 16:15:00,
2013-07-12 11:25:00,86.9,70.8,29.94,South,169,8.0,8.0,59,0.00,,,0.00,Wunderground v.1.15,2013-07-12 16:25:00,
2013-07-12 11:30:00,86.6,71.1,29.93,SSE,167,8.0,8.0,60,0.00,,,0.00,Wunderground v.1.15,2013-07-12 16:30:00,
2013-07-12 11:35:00,87.4,71.3,29.94,ESE,115,7.0,8.0,59,0.00,,,0.00,Wunderground v.1.15,2013-07-12 16:35:00,
2013-07-12 11:40:00,87.3,70.7,29.94,SSE,161,7.0,7.0,58,0.00,,,0.00,Wunderground v.1.15,2013-07-12 16:40:00,
2013-07-12 11:50:00,87.4,71.3,29.94,SE,130,8.0,8.0,59,0.00,,,0.00,Wunderground v.1.15,2013-07-12 16:50:00,
2013-07-12 12:00:00,88.1,70.9,29.94,ESE,116,7.0,7.0,57,0.00,,,0.00,Wunderground v.1.15,2013-07-12 17:00:00,
2013-07-12 12:10:00,89.1,70.8,29.94,ESE,103,7.0,10.0,55,0.00,,,0.00,Wunderground v.1.15,2013-07-12 17:10:00,
2013-07-12 12:15:00,89.1,70.8,29.94,SE,134,7.0,10.0,55,0.00,,,0.00,Wunderground v.1.15,2013-07-12 17:15:00,
2013-07-12 12:20:00,88.7,70.5,29.94,SE,145,7.0,8.0,55,0.00,,,0.00,Wunderground v.1.15,2013-07-12 17:20:00,
2013-07-12 12:25:00,88.9,70.6,29.93,East,100,7.0,9.0,55,0.00,,,0.00,Wunderground v.1.15,2013-07-12 17:25:00,
2013-07-12 12:30:00,89.3,71.0,29.93,ENE,67,7.0,7.0,55,0.00,,,0.00,Wunderground v.1.15,2013-07-12 17:30:00,
2013-07-12 12:40:00,89.8,71.5,29.93,ESE,111,6.0,6.0,55,0.00,,,0.00,Wunderground v.1.15,2013-07-12 17:40:00,
2013-07-12 12:45:00,90.4,70.9,29.93,SE,131,7.0,8.0,53,0.00,,,0.00,Wunderground v.1.15,2013-07-12 17:45:00,
2013-07-12 12:55:00,90.7,71.2,29.93,SSE,161,6.0,6.0,53,0.00,,,0.00,Wunderground v.1.15,2013-07-12 17:55:00,
2013-07-12 13:05:00,90.9,70.8,29.93,SSE,150,6.0,10.0,52,0.00,,,0.00,Wunderground v.1.15,2013-07-12 18:05:00,
2013-07-12 13:10:00,91.4,70.7,29.93,East,92,7.0,7.0,51,0.00,,,0.00,Wunderground v.1.15,2013-07-12 18:10:00,
2013-07-12 13:25:00,91.3,70.6,29.93,SE,144,7.0,10.0,51,0.00,,,0.00,Wunderground v.1.15,2013-07-12 18:25:00,
2013-07-12 13:30:00,90.8,70.7,29.93,SSW,204,8.0,8.0,52,0.00,,,0.00,Wunderground v.1.15,2013-07-12 18:30:00,
2013-07-12 13:40:00,91.6,70.9,29.92,SE,134,6.0,6.0,51,0.00,,,0.00,Wunderground v.1.15,2013-07-12 18:40:00,
2013-07-12 13:45:00,91.6,70.3,29.92,SE,136,7.0,7.0,50,0.00,,,0.00,Wunderground v.1.15,2013-07-12 18:45:00,
2013-07-12 13:50:00,91.6,70.3,29.92,South,173,7.0,8.0,50,0.00,,,0.00,Wunderground v.1.15,2013-07-12 18:50:00,
2013-07-12 13:55:00,91.5,70.8,29.92,SE,139,7.0,8.0,51,0.00,,,0.00,Wunderground v.1.15,2013-07-12 18:55:00,
2013-07-12 14:05:00,92.1,70.8,29.92,SSE,168,5.0,7.0,50,0.00,,,0.00,Wunderground v.1.15,2013-07-12 19:05:00,
2013-07-12 14:15:00,92.6,70.6,29.92,South,172,6.0,6.0,49,0.00,,,0.00,Wunderground v.1.15,2013-07-12 19:15:00,
2013-07-12 14:25:00,92.7,70.1,29.92,SE,132,7.0,9.0,48,0.00,,,0.00,Wunderground v.1.15,2013-07-12 19:25:00,
2013-07-12 14:30:00,92.4,70.5,29.92,ESE,115,8.0,8.0,49,0.00,,,0.00,Wunderground v.1.15,2013-07-12 19:30:00,
2013-07-12 14:35:00,92.6,70.6,29.91,SSE,164,7.0,8.0,49,0.00,,,0.00,Wunderground v.1.15,2013-07-12 19:35:00,
2013-07-12 14:40:00,92.9,70.3,29.91,SE,144,6.0,6.0,48,0.00,,,0.00,Wunderground v.1.15,2013-07-12 19:40:00,
2013-07-12 14:45:00,93.3,70.1,29.91,SE,140,7.0,7.0,47,0.00,,,0.00,Wunderground v.1.15,2013-07-12 19:45:00,
2013-07-12 14:50:00,93.5,70.9,29.91,ENE,72,6.0,6.0,48,0.00,,,0.00,Wunderground v.1.15,2013-07-12 19:50:00,
2013-07-12 14:55:00,93.2,70.0,29.91,SE,136,7.0,9.0,47,0.00,,,0.00,Wunderground v.1.15,2013-07-12 19:55:00,
2013-07-12 15:05:00,93.4,70.8,29.90,ESE,107,5.0,7.0,48,0.00,,,0.00,Wunderground v.1.15,2013-07-12 20:05:00,
2013-07-12 15:15:00,93.2,70.6,29.90,SSE,148,7.0,11.0,48,0.00,,,0.00,Wunderground v.1.15,2013-07-12 20:15:00,
2013-07-12 15:25:00,93.7,70.4,29.90,SE,140,6.0,9.0,47,0.00,,,0.00,Wunderground v.1.15,2013-07-12 20:25:00,
2013-07-12 15:30:00,93.8,69.9,29.90,East,81,6.0,8.0,46,0.00,,,0.00,Wunderground v.1.15,2013-07-12 20:30:00,
2013-07-12 15:35:00,93.9,70.0,29.90,ESE,112,6.0,8.0,46,0.00,,,0.00,Wunderground v.1.15,2013-07-12 20:35:00,
2013-07-12 15:40:00,94.1,68.9,29.90,South,191,7.0,8.0,44,0.00,,,0.00,Wunderground v.1.15,2013-07-12 20:40:00,
2013-07-12 15:45:00,93.9,69.3,29.90,SE,129,6.0,8.0,45,0.00,,,0.00,Wunderground v.1.15,2013-07-12 20:45:00,
2013-07-12 15:55:00,94.1,69.5,29.89,SE,134,7.0,7.0,45,0.00,,,0.00,Wunderground v.1.15,2013-07-12 20:55:00,
2013-07-12 16:05:00,94.7,69.4,29.89,SSE,161,5.0,7.0,44,0.00,,,0.00,Wunderground v.1.15,2013-07-12 21:05:00,
2013-07-12 16:10:00,94.5,69.2,29.89,SSE,152,6.0,6.0,44,0.00,,,0.00,Wunderground v.1.15,2013-07-12 21:10:00,
2013-07-12 16:15:00,94.5,69.2,29.89,SE,144,6.0,6.0,44,0.00,,,0.00,Wunderground v.1.15,2013-07-12 21:15:00,
2013-07-12 16:20:00,94.7,70.1,29.89,ESE,107,5.0,7.0,45,0.00,,,0.00,Wunderground v.1.15,2013-07-12 21:20:00,
2013-07-12 16:25:00,94.8,68.8,29.89,South,173,5.0,7.0,43,0.00,,,0.00,Wunderground v.1.15,2013-07-12 21:25:00,
2013-07-12 16:35:00,94.4,69.8,29.89,ESE,105,6.0,8.0,45,0.00,,,0.00,Wunderground v.1.15,2013-07-12 21:35:00,
2013-07-12 16:45:00,94.5,69.2,29.88,SE,130,6.0,6.0,44,0.00,,,0.00,Wunderground v.1.15,2013-07-12 21:45:00,
2013-07-12 16:50:00,94.7,68.7,29.88,ESE,112,7.0,7.0,43,0.00,,,0.00,Wunderground v.1.15,2013-07-12 21:50:00,
2013-07-12 17:00:00,95.1,69.8,29.88,South,174,5.0,9.0,44,0.00,,,0.00,Wunderground v.1.15,2013-07-12 22:00:00,
2013-07-12 17:10:00,95.2,69.8,29.88,SE,134,5.0,9.0,44,0.00,,,0.00,Wunderground v.1.15,2013-07-12 22:10:00,
2013-07-12 17:15:00,94.9,70.2,29.88,South,173,6.0,9.0,45,0.00,,,0.00,Wunderground v.1.15,2013-07-12 22:15:00,
2013-07-12 17:25:00,95.0,69.7,29.88,SE,129,6.0,9.0,44,0.00,,,0.00,Wunderground v.1.15,2013-07-12 22:25:00,
2013-07-12 17:35:00,94.8,68.8,29.88,SE,132,6.0,6.0,43,0.00,,,0.00,Wunderground v.1.15,2013-07-12 22:35:00,
2013-07-12 17:40:00,94.6,70.0,29.88,ESE,116,6.0,7.0,45,0.00,,,0.00,Wunderground v.1.15,2013-07-12 22:40:00,
2013-07-12 17:45:00,94.7,69.4,29.87,East,86,6.0,7.0,44,0.00,,,0.00,Wunderground v.1.15,2013-07-12 22:45:00,
2013-07-12 17:55:00,94.8,69.5,29.87,SE,126,7.0,7.0,44,0.00,,,0.00,Wunderground v.1.15,2013-07-12 22:55:00,
2013-07-12 18:00:00,94.8,69.5,29.87,East,97,6.0,6.0,44,0.00,,,0.00,Wunderground v.1.15,2013-07-12 23:00:00,
2013-07-12 18:05:00,94.8,69.5,29.87,SSE,157,6.0,8.0,44,0.00,,,0.00,Wunderground v.1.15,2013-07-12 23:05:00,
2013-07-12 18:15:00,94.8,69.5,29.87,East,95,6.0,11.0,44,0.00,,,0.00,Wunderground v.1.15,2013-07-12 23:15:00,
2013-07-12 18:20:00,94.9,69.6,29.87,ESE,104,6.0,9.0,44,0.00,,,0.00,Wunderground v.1.15,2013-07-12 23:20:00,
2013-07-12 18:25:00,94.8,69.5,29.86,SSE,149,7.0,9.0,44,0.00,,,0.00,Wunderground v.1.15,2013-07-12 23:25:00,
2013-07-12 18:30:00,94.8,69.5,29.86,SSE,157,6.0,7.0,44,0.00,,,0.00,Wunderground v.1.15,2013-07-12 23:30:00,
2013-07-12 18:40:00,94.8,69.5,29.86,East,94,6.0,6.0,44,0.00,,,0.00,Wunderground v.1.15,2013-07-12 23:40:00,
2013-07-12 18:50:00,94.6,69.3,29.87,ESE,107,5.0,5.0,44,0.00,,,0.00,Wunderground v.1.15,2013-07-12 23:50:00,
2013-07-12 18:55:00,94.4,69.1,29.87,East,96,5.0,5.0,44,0.00,,,0.00,Wunderground v.1.15,2013-07-12 23:55:00,
2013-07-12 19:00:00,94.4,69.1,29.87,SSE,155,6.0,7.0,44,0.00,,,0.00,Wunderground v.1.15,2013-07-13 00:00:00,
2013-07-12 19:05:00,94.1,68.9,29.87,ESE,105,6.0,7.0,44,0.00,,,0.00,Wunderground v.1.15,2013-07-13 00:05:00,
2013-07-12 19:10:00,94.2,68.9,29.87,East,101,5.0,5.0,44,0.00,,,0.00,Wunderground v.1.15,2013-07-13 00:10:00,
2013-07-12 19:15:00,94.1,68.9,29.87,ESE,113,5.0,11.0,44,0.00,,,0.00,Wunderground v.1.15,2013-07-13 00:15:00,
2013-07-12 19:30:00,93.8,69.2,29.87,ESE,122,4.0,4.0,45,0.00,,,0.00,Wunderground v.1.15,2013-07-13 00:30:00,
2013-07-12 19:35:00,93.6,69.7,29.88,SE,139,4.0,5.0,46,0.00,,,0.00,Wunderground v.1.15,2013-07-13 00:35:00,
2013-07-12 19:40:00,93.4,69.5,29.88,East,89,4.0,5.0,46,0.00,,,0.00,Wunderground v.1.15,2013-07-13 00:40:00,
2013-07-12 19:45:00,93.3,69.4,29.88,SE,126,4.0,5.0,46,0.00,,,0.00,Wunderground v.1.15,2013-07-13 00:45:00,
2013-07-12 19:55:00,93.1,69.3,29.88,East,96,4.0,4.0,46,0.00,,,0.00,Wunderground v.1.15,2013-07-13 00:55:00,
2013-07-12 20:00:00,92.8,69.6,29.88,ESE,115,3.0,3.0,47,0.00,,,0.00,Wunderground v.1.15,2013-07-13 01:00:00,
2013-07-12 20:10:00,92.8,70.2,29.88,ESE,120,2.0,4.0,48,0.00,,,0.00,Wunderground v.1.15,2013-07-13 01:10:00,
2013-07-12 20:15:00,92.5,70.6,29.88,ESE,109,3.0,5.0,49,0.00,,,0.00,Wunderground v.1.15,2013-07-13 01:15:00,
2013-07-12 20:20:00,92.2,70.3,29.88,ESE,109,3.0,3.0,49,0.00,,,0.00,Wunderground v.1.15,2013-07-13 01:20:00,
2013-07-12 20:25:00,91.9,70.0,29.88,ESE,109,3.0,3.0,49,0.00,,,0.00,Wunderground v.1.15,2013-07-13 01:25:00,
2013-07-12 20:30:00,91.6,69.7,29.88,ESE,105,3.0,5.0,49,0.00,,,0.00,Wunderground v.1.15,2013-07-13 01:30:00,
2013-07-12 20:35:00,91.1,69.9,29.88,ESE,109,4.0,5.0,50,0.00,,,0.00,Wunderground v.1.15,2013-07-13 01:35:00,
2013-07-12 20:45:00,90.7,69.5,29.88,ESE,105,2.0,3.0,50,0.00,,,0.00,Wunderground v.1.15,2013-07-13 01:45:00,
2013-07-12 21:00:00,90.0,69.4,29.88,ESE,105,3.0,3.0,51,0.00,,,0.00,Wunderground v.1.15,2013-07-13 02:00:00,
2013-07-12 21:15:00,89.2,69.8,29.88,ESE,123,3.0,4.0,53,0.00,,,0.00,Wunderground v.1.15,2013-07-13 02:15:00,
2013-07-12 21:25:00,88.6,69.8,29.88,ESE,113,4.0,4.0,54,0.00,,,0.00,Wunderground v.1.15,2013-07-13 02:25:00,
2013-07-12 21:35:00,88.3,70.1,29.88,ESE,103,3.0,4.0,55,0.00,,,0.00,Wunderground v.1.15,2013-07-13 02:35:00,
2013-07-12 21:40:00,88.1,69.9,29.88,ESE,110,4.0,4.0,55,0.00,,,0.00,Wunderground v.1.15,2013-07-13 02:40:00,
2013-07-12 21:45:00,87.9,70.2,29.88,SE,134,4.0,4.0,56,0.00,,,0.00,Wunderground v.1.15,2013-07-13 02:45:00,
2013-07-12 21:50:00,87.8,70.1,29.88,East,101,3.0,6.0,56,0.00,,,0.00,Wunderground v.1.15,2013-07-13 02:50:00,
2013-07-12 21:55:00,87.6,70.0,29.89,ESE,106,4.0,6.0,56,0.00,,,0.00,Wunderground v.1.15,2013-07-13 02:55:00,
2013-07-12 22:05:00,87.4,69.8,29.89,SE,146,3.0,6.0,56,0.00,,,0.00,Wunderground v.1.15,2013-07-13 03:05:00,
2013-07-12 22:25:00,86.8,69.7,29.89,ESE,119,4.0,5.0,57,0.00,,,0.00,Wunderground v.1.15,2013-07-13 03:25:00,
2013-07-12 22:30:00,86.6,70.1,29.89,ESE,122,5.0,5.0,58,0.00,,,0.00,Wunderground v.1.15,2013-07-13 03:30:00,
2013-07-12 22:35:00,86.4,69.9,29.89,ESE,115,5.0,5.0,58,0.00,,,0.00,Wunderground v.1.15,2013-07-13 03:35:00,
2013-07-12 22:40:00,86.3,69.8,29.90,ESE,115,4.0,4.0,58,0.00,,,0.00,Wunderground v.1.15,2013-07-13 03:40:00,
2013-07-12 22:45:00,86.2,70.2,29.90,ESE,117,4.0,5.0,59,0.00,,,0.00,Wunderground v.1.15,2013-07-13 03:45:00,
2013-07-12 22:50:00,86.1,70.1,29.90,ESE,122,4.0,5.0,59,0.00,,,0.00,Wunderground v.1.15,2013-07-13 03:50:00,
2013-07-12 23:00:00,85.9,69.9,29.90,SE,134,3.0,4.0,59,0.00,,,0.00,Wunderground v.1.15,2013-07-13 04:00:00,
2013-07-12 23:05:00,85.7,70.2,29.90,SE,135,4.0,5.0,60,0.00,,,0.00,Wunderground v.1.15,2013-07-13 04:05:00,
2013-07-12 23:10:00,85.5,70.0,29.90,ESE,107,4.0,4.0,60,0.00,,,0.00,Wunderground v.1.15,2013-07-13 04:10:00,
2013-07-12 23:20:00,85.4,69.9,29.91,ESE,121,4.0,4.0,60,0.00,,,0.00,Wunderground v.1.15,2013-07-13 04:20:00,
2013-07-12 23:30:00,85.0,70.0,29.91,SE,129,5.0,5.0,61,0.00,,,0.00,Wunderground v.1.15,2013-07-13 04:30:00,
2013-07-12 23:40:00,84.8,69.9,29.91,ESE,119,4.0,4.0,61,0.00,,,0.00,Wunderground v.1.15,2013-07-13 04:40:00,
2013-07-12 23:50:00,84.6,70.1,29.91,ESE,117,4.0,4.0,62,0.00,,,0.00,Wunderground v.1.15,2013-07-13 04:50:00,
2013-07-12 23:55:00,84.4,70.0,29.91,SE,126,4.0,4.0,62,0.00,,,0.00,Wunderground v.1.15,2013-07-13 04:55:00,